This is the latest recevied weather packets stored in our database for station/object 9A3XK-13. If no packets are shown the sender has not sent any weather packets the latest 10 day(s).
| Time | Temp. | Humidity | Pressure | Rain* | Wind** | Luminosity | Snow |
|---|---|---|---|---|---|---|---|
| 1777627516 | 15.56° C | 37% | 1026.7 hPa | 0 mm | - | 786 W/m² | - |
| 1777627216 | 15° C | 38% | 1026.7 hPa | 0 mm | - | 780 W/m² | - |
| 1777626916 | 15° C | 39% | 1026.8 hPa | 0 mm | - | 772 W/m² | - |
| 1777626616 | 15° C | 38% | 1026.8 hPa | 0 mm | - | 762 W/m² | - |
| 1777626317 | 15° C | 39% | 1026.8 hPa | 0 mm | - | 759 W/m² | - |
| 1777626016 | 15° C | 37% | 1026.9 hPa | 0 mm | - | 755 W/m² | - |
| 1777625716 | 15° C | 39% | 1027 hPa | 0 mm | - | 746 W/m² | - |
| 1777625417 | 15° C | 38% | 1026.9 hPa | 0 mm | - | 739 W/m² | - |
| 1777625116 | 15° C | 40% | 1026.9 hPa | 0 mm | - | 729 W/m² | - |
| 1777624817 | 14.44° C | 41% | 1026.9 hPa | 0 mm | - | 720 W/m² | - |
| 1777624517 | 14.44° C | 42% | 1026.9 hPa | 0 mm | - | 713 W/m² | - |
| 1777624216 | 14.44° C | 42% | 1026.9 hPa | 0 mm | - | 703 W/m² | - |
| 1777623917 | 13.89° C | 42% | 1026.9 hPa | 0 mm | - | 693 W/m² | - |
| 1777623616 | 13.89° C | 44% | 1026.9 hPa | 0 mm | - | 681 W/m² | - |
| 1777623316 | 13.89° C | 44% | 1026.9 hPa | 0 mm | - | 672 W/m² | - |
| 1777623017 | 13.89° C | 42% | 1026.9 hPa | 0 mm | - | 662 W/m² | - |
| 1777622716 | 13.33° C | 45% | 1026.9 hPa | 0 mm | - | 651 W/m² | - |
| 1777622416 | 13.33° C | 46% | 1026.9 hPa | 0 mm | - | 641 W/m² | - |
| 1777622116 | 13.33° C | 47% | 1026.9 hPa | 0 mm | - | 629 W/m² | - |
| 1777621816 | 12.78° C | 49% | 1026.9 hPa | 0 mm | - | 616 W/m² | - |
| 1777621516 | 12.78° C | 46% | 1026.9 hPa | 0 mm | - | 605 W/m² | - |
| 1777621216 | 12.78° C | 50% | 1026.9 hPa | 0 mm | - | 595 W/m² | - |
| 1777620916 | 12.22° C | 50% | 1026.9 hPa | 0 mm | - | 583 W/m² | - |
| 1777620616 | 12.22° C | 50% | 1026.9 hPa | 0 mm | - | 570 W/m² | - |
| 1777620316 | 12.22° C | 51% | 1026.9 hPa | 0 mm | - | 556 W/m² | - |
* Rain latest hour (hover to see other rain measurements)
** Current wind speed in m/s (hover to see current wind gust speed)